Time,TemperatureF,DewpointF,PressureIn,WindDirection,WindDirectionDegrees,WindSpeedMPH,WindSpeedGustMPH,Humidity,HourlyPrecipIn,Conditions,Clouds,dailyrainin,SoftwareType,DateUTC
2013-03-19 00:00:00,54.7,52.7,30.20,SW,229,0.0,0.0,93,0.00,,,0.04,Wunderground v.1.15,2013-03-18 13:00:00,
2013-03-19 00:05:00,54.5,52.5,30.20,SW,229,0.0,0.0,93,0.00,,,0.00,Wunderground v.1.15,2013-03-18 13:05:00,
2013-03-19 00:10:00,54.7,52.7,30.20,North,-999,0.0,0.0,93,0.00,,,-99.99,WeatherLink 5.9.3,2013-03-18 13:10:00,
2013-03-19 00:17:00,54.2,52.2,30.20,SW,229,0.0,0.0,93,0.00,,,0.00,Wunderground v.1.15,2013-03-18 13:17:00,
2013-03-19 00:23:00,54.2,52.2,30.20,SW,229,0.0,0.0,93,0.00,,,0.00,Wunderground v.1.15,2013-03-18 13:23:00,
2013-03-19 00:29:00,54.2,52.2,30.20,SW,229,0.0,0.0,93,0.00,,,0.00,Wunderground v.1.15,2013-03-18 13:29:00,
2013-03-19 00:34:00,54.2,52.2,30.20,SW,229,0.0,0.0,93,0.00,,,0.00,Wunderground v.1.15,2013-03-18 13:34:00,
2013-03-19 00:39:00,54.1,52.1,30.20,SW,217,0.0,0.0,93,0.00,,,0.00,Wunderground v.1.15,2013-03-18 13:39:00,
2013-03-19 00:44:00,54.2,52.5,30.20,WSW,238,0.0,0.0,94,0.00,,,0.00,Wunderground v.1.15,2013-03-18 13:44:00,
2013-03-19 00:50:00,54.1,52.4,30.20,North,-999,0.0,0.0,94,0.00,,,-99.99,WeatherLink 5.9.3,2013-03-18 13:50:00,
2013-03-19 00:56:00,54.1,52.1,30.20,SW,236,0.0,0.0,93,0.00,,,0.00,Wunderground v.1.15,2013-03-18 13:56:00,
2013-03-19 01:02:00,53.8,51.8,30.20,WSW,238,0.0,0.0,93,0.00,,,0.00,Wunderground v.1.15,2013-03-18 14:02:00,
2013-03-19 01:08:00,53.5,51.5,30.20,SW,236,0.0,0.0,93,0.00,,,0.00,Wunderground v.1.15,2013-03-18 14:08:00,
2013-03-19 01:14:00,53.2,51.2,30.19,SW,236,0.0,0.0,93,0.00,,,0.00,Wunderground v.1.15,2013-03-18 14:14:00,
2013-03-19 01:20:00,53.3,51.3,30.19,North,-999,0.0,0.0,93,0.00,,,-99.99,WeatherLink 5.9.3,2013-03-18 14:20:00,
2013-03-19 01:26:00,52.9,51.2,30.19,SW,236,0.0,0.0,94,0.00,,,0.00,Wunderground v.1.15,2013-03-18 14:26:00,
2013-03-19 01:32:00,52.9,51.2,30.19,WSW,238,0.0,0.0,94,0.00,,,0.00,Wunderground v.1.15,2013-03-18 14:32:00,
2013-03-19 01:37:00,52.9,51.2,30.19,WSW,237,0.0,0.0,94,0.00,,,0.00,Wunderground v.1.15,2013-03-18 14:37:00,
2013-03-19 01:43:00,52.8,51.1,30.19,WSW,237,0.0,0.0,94,0.00,,,0.00,Wunderground v.1.15,2013-03-18 14:43:00,
2013-03-19 01:48:00,53.1,51.7,30.19,WSW,237,0.0,0.0,95,0.00,,,0.00,Wunderground v.1.15,2013-03-18 14:48:00,
2013-03-19 01:54:00,53.0,51.3,30.19,SW,236,0.0,0.0,94,0.00,,,0.00,Wunderground v.1.15,2013-03-18 14:54:00,
2013-03-19 01:59:00,52.9,51.2,30.19,SW,236,0.0,0.0,94,0.00,,,0.00,Wunderground v.1.15,2013-03-18 14:59:00,
2013-03-19 02:04:00,52.9,51.2,30.19,SW,236,0.0,0.0,94,0.00,,,0.00,Wunderground v.1.15,2013-03-18 15:04:00,
2013-03-19 02:09:00,53.0,51.6,30.19,SW,236,0.0,0.0,95,0.00,,,0.00,Wunderground v.1.15,2013-03-18 15:09:00,
2013-03-19 02:14:00,53.1,51.7,30.19,SW,236,0.0,0.0,95,0.00,,,0.00,Wunderground v.1.15,2013-03-18 15:14:00,
2013-03-19 02:19:00,53.1,51.7,30.18,WSW,237,0.0,0.0,95,0.00,,,0.00,Wunderground v.1.15,2013-03-18 15:19:00,
2013-03-19 02:24:00,53.2,51.8,30.18,SW,236,0.0,0.0,95,0.00,,,0.00,Wunderground v.1.15,2013-03-18 15:24:00,
2013-03-19 02:29:00,53.0,51.6,30.18,WSW,238,0.0,0.0,95,0.00,,,0.00,Wunderground v.1.15,2013-03-18 15:29:00,
2013-03-19 02:34:00,53.1,51.7,30.18,SW,236,0.0,0.0,95,0.00,,,0.00,Wunderground v.1.15,2013-03-18 15:34:00,
2013-03-19 02:39:00,52.9,51.5,30.18,SW,236,0.0,0.0,95,0.00,,,0.00,Wunderground v.1.15,2013-03-18 15:39:00,
2013-03-19 02:44:00,52.8,51.4,30.18,WSW,238,0.0,0.0,95,0.00,,,0.00,Wunderground v.1.15,2013-03-18 15:44:00,
2013-03-19 02:49:00,52.8,51.4,30.18,SW,236,0.0,0.0,95,0.00,,,0.00,Wunderground v.1.15,2013-03-18 15:49:00,
2013-03-19 02:54:00,52.8,51.4,30.18,SW,236,0.0,0.0,95,0.00,,,0.00,Wunderground v.1.15,2013-03-18 15:54:00,
2013-03-19 02:59:00,52.7,51.3,30.18,SW,236,0.0,0.0,95,0.00,,,0.00,Wunderground v.1.15,2013-03-18 15:59:00,
2013-03-19 03:04:00,52.5,51.1,30.18,WSW,238,0.0,0.0,95,0.00,,,0.00,Wunderground v.1.15,2013-03-18 16:04:00,
2013-03-19 03:09:00,52.4,51.0,30.17,SW,236,0.0,0.0,95,0.00,,,0.00,Wunderground v.1.15,2013-03-18 16:09:00,
2013-03-19 03:14:00,52.4,51.0,30.18,SW,236,0.0,0.0,95,0.00,,,0.00,Wunderground v.1.15,2013-03-18 16:14:00,
2013-03-19 03:19:00,52.8,51.7,30.18,WSW,238,0.0,0.0,96,0.00,,,0.00,Wunderground v.1.15,2013-03-18 16:19:00,
2013-03-19 03:24:00,52.9,51.8,30.18,WSW,238,0.0,0.0,96,0.00,,,0.00,Wunderground v.1.15,2013-03-18 16:24:00,
2013-03-19 03:29:00,53.0,51.9,30.18,WSW,238,0.0,0.0,96,0.00,,,0.00,Wunderground v.1.15,2013-03-18 16:29:00,
2013-03-19 03:34:00,53.2,52.1,30.18,WSW,238,0.0,0.0,96,0.00,,,0.00,Wunderground v.1.15,2013-03-18 16:34:00,
2013-03-19 03:39:00,53.1,51.7,30.18,WSW,238,0.0,0.0,95,0.00,,,0.00,Wunderground v.1.15,2013-03-18 16:39:00,
2013-03-19 03:44:00,53.1,51.7,30.18,SW,236,0.0,0.0,95,0.00,,,0.00,Wunderground v.1.15,2013-03-18 16:44:00,
2013-03-19 03:49:00,53.1,51.7,30.18,SW,236,0.0,0.0,95,0.00,,,0.00,Wunderground v.1.15,2013-03-18 16:49:00,
2013-03-19 03:54:00,53.0,51.6,30.17,SW,236,0.0,0.0,95,0.00,,,0.00,Wunderground v.1.15,2013-03-18 16:54:00,
2013-03-19 03:59:00,53.2,52.1,30.17,SW,236,0.0,0.0,96,0.00,,,0.00,Wunderground v.1.15,2013-03-18 16:59:00,
2013-03-19 04:04:00,53.3,52.2,30.17,SW,236,0.0,1.0,96,0.00,,,0.00,Wunderground v.1.15,2013-03-18 17:04:00,
2013-03-19 04:09:00,53.5,52.4,30.17,SW,236,0.0,1.0,96,0.00,,,0.00,Wunderground v.1.15,2013-03-18 17:09:00,
2013-03-19 04:14:00,53.6,52.5,30.17,WSW,237,0.0,0.0,96,0.00,,,0.00,Wunderground v.1.15,2013-03-18 17:14:00,
2013-03-19 04:19:00,53.5,52.4,30.18,SW,236,0.0,0.0,96,0.00,,,0.00,Wunderground v.1.15,2013-03-18 17:19:00,
2013-03-19 04:24:00,53.5,52.4,30.18,SW,236,0.0,0.0,96,0.00,,,0.00,Wunderground v.1.15,2013-03-18 17:24:00,
2013-03-19 04:29:00,53.5,52.4,30.18,SW,236,0.0,0.0,96,0.00,,,0.00,Wunderground v.1.15,2013-03-18 17:29:00,
2013-03-19 04:34:00,53.5,52.4,30.18,SW,236,0.0,0.0,96,0.00,,,0.00,Wunderground v.1.15,2013-03-18 17:34:00,
2013-03-19 04:39:00,53.5,52.4,30.18,SW,236,0.0,0.0,96,0.00,,,0.00,Wunderground v.1.15,2013-03-18 17:39:00,
2013-03-19 04:44:00,53.5,52.4,30.18,WSW,237,0.0,0.0,96,0.00,,,0.00,Wunderground v.1.15,2013-03-18 17:44:00,
2013-03-19 04:49:00,53.7,52.6,30.18,SW,236,0.0,0.0,96,0.00,,,0.00,Wunderground v.1.15,2013-03-18 17:49:00,
2013-03-19 04:54:00,53.8,52.7,30.18,SW,236,0.0,0.0,96,0.00,,,0.00,Wunderground v.1.15,2013-03-18 17:54:00,
2013-03-19 04:59:00,53.8,52.7,30.18,WSW,237,0.0,1.0,96,0.00,,,0.00,Wunderground v.1.15,2013-03-18 17:59:00,
2013-03-19 05:04:00,53.9,52.8,30.18,SW,236,0.0,0.0,96,0.00,,,0.00,Wunderground v.1.15,2013-03-18 18:04:00,
2013-03-19 05:09:00,54.0,52.9,30.18,SW,236,0.0,1.0,96,0.00,,,0.00,Wunderground v.1.15,2013-03-18 18:09:00,
2013-03-19 05:14:00,53.9,52.8,30.18,WSW,237,0.0,0.0,96,0.00,,,0.00,Wunderground v.1.15,2013-03-18 18:14:00,
2013-03-19 05:19:00,53.8,52.7,30.18,SW,236,0.0,0.0,96,0.00,,,0.00,Wunderground v.1.15,2013-03-18 18:19:00,
2013-03-19 05:24:00,53.8,52.7,30.18,SW,236,0.0,0.0,96,0.00,,,0.00,Wunderground v.1.15,2013-03-18 18:24:00,
2013-03-19 05:29:00,53.8,52.7,30.18,SW,236,0.0,0.0,96,0.00,,,0.00,Wunderground v.1.15,2013-03-18 18:29:00,
2013-03-19 05:34:00,54.0,52.9,30.18,SW,236,0.0,0.0,96,0.00,,,0.00,Wunderground v.1.15,2013-03-18 18:34:00,
2013-03-19 05:39:00,54.0,52.9,30.19,SW,236,0.0,0.0,96,0.00,,,0.00,Wunderground v.1.15,2013-03-18 18:39:00,
2013-03-19 05:44:00,54.0,52.9,30.19,SW,236,0.0,0.0,96,0.00,,,0.00,Wunderground v.1.15,2013-03-18 18:44:00,
2013-03-19 05:49:00,54.0,52.9,30.19,SW,236,0.0,0.0,96,0.00,,,0.00,Wunderground v.1.15,2013-03-18 18:49:00,
2013-03-19 05:54:00,53.9,52.8,30.19,WSW,237,0.0,0.0,96,0.00,,,0.00,Wunderground v.1.15,2013-03-18 18:54:00,
2013-03-19 05:59:00,53.8,52.7,30.19,SW,236,0.0,0.0,96,0.00,,,0.00,Wunderground v.1.15,2013-03-18 18:59:00,
2013-03-19 06:04:00,53.6,52.5,30.20,SW,236,0.0,0.0,96,0.00,,,0.00,Wunderground v.1.15,2013-03-18 19:04:00,
2013-03-19 06:09:00,53.6,52.5,30.20,SW,236,0.0,0.0,96,0.00,,,0.00,Wunderground v.1.15,2013-03-18 19:09:00,
2013-03-19 06:14:00,53.4,52.3,30.20,WSW,237,0.0,0.0,96,0.00,,,0.00,Wunderground v.1.15,2013-03-18 19:14:00,
2013-03-19 06:19:00,53.3,52.2,30.20,SW,236,0.0,0.0,96,0.00,,,0.00,Wunderground v.1.15,2013-03-18 19:19:00,
2013-03-19 06:24:00,53.4,52.3,30.20,WSW,237,0.0,0.0,96,0.00,,,0.00,Wunderground v.1.15,2013-03-18 19:24:00,
2013-03-19 06:29:00,53.4,52.3,30.20,SW,236,0.0,0.0,96,0.00,,,0.00,Wunderground v.1.15,2013-03-18 19:29:00,
2013-03-19 06:34:00,53.5,52.4,30.20,WSW,237,0.0,0.0,96,0.00,,,0.00,Wunderground v.1.15,2013-03-18 19:34:00,
2013-03-19 06:39:00,53.6,52.5,30.20,SW,236,0.0,0.0,96,0.00,,,0.00,Wunderground v.1.15,2013-03-18 19:39:00,
2013-03-19 06:44:00,53.7,52.6,30.21,WSW,237,0.0,0.0,96,0.00,,,0.00,Wunderground v.1.15,2013-03-18 19:44:00,
2013-03-19 06:49:00,53.9,52.8,30.21,SW,236,0.0,0.0,96,0.00,,,0.00,Wunderground v.1.15,2013-03-18 19:49:00,
2013-03-19 06:54:00,54.1,53.0,30.21,SW,236,0.0,0.0,96,0.00,,,0.00,Wunderground v.1.15,2013-03-18 19:54:00,
2013-03-19 06:59:00,54.2,53.1,30.21,SW,236,0.0,0.0,96,0.00,,,0.00,Wunderground v.1.15,2013-03-18 19:59:00,
2013-03-19 07:04:00,54.2,53.1,30.22,SW,236,0.0,0.0,96,0.00,,,0.00,Wunderground v.1.15,2013-03-18 20:04:00,
2013-03-19 07:09:00,54.1,53.0,30.22,SW,236,0.0,0.0,96,0.00,,,0.00,Wunderground v.1.15,2013-03-18 20:09:00,
2013-03-19 07:14:00,54.1,53.0,30.22,SW,236,0.0,0.0,96,0.00,,,0.00,Wunderground v.1.15,2013-03-18 20:14:00,
2013-03-19 07:19:00,54.3,53.2,30.22,WSW,237,0.0,0.0,96,0.00,,,0.00,Wunderground v.1.15,2013-03-18 20:19:00,
2013-03-19 07:24:00,54.7,53.6,30.22,SW,236,0.0,0.0,96,0.00,,,0.00,Wunderground v.1.15,2013-03-18 20:24:00,
2013-03-19 07:29:00,55.3,54.5,30.22,SW,236,0.0,0.0,97,0.00,,,0.00,Wunderground v.1.15,2013-03-18 20:29:00,
2013-03-19 07:34:00,55.9,55.1,30.22,SSW,199,0.0,1.0,97,0.00,,,0.00,Wunderground v.1.15,2013-03-18 20:34:00,
2013-03-19 07:39:00,56.6,55.8,30.22,SSW,199,0.0,1.0,97,0.00,,,0.00,Wunderground v.1.15,2013-03-18 20:39:00,
2013-03-19 07:44:00,57.4,56.6,30.22,SSW,199,0.0,0.0,97,0.00,,,0.00,Wunderground v.1.15,2013-03-18 20:44:00,
2013-03-19 07:49:00,58.0,56.9,30.23,South,188,0.0,1.0,96,0.00,,,0.00,Wunderground v.1.15,2013-03-18 20:49:00,
2013-03-19 07:54:00,58.5,56.8,30.22,South,188,0.0,1.0,94,0.00,,,0.00,Wunderground v.1.15,2013-03-18 20:54:00,
2013-03-19 07:59:00,59.3,57.3,30.23,South,188,0.0,1.0,93,0.00,,,0.00,Wunderground v.1.15,2013-03-18 20:59:00,
2013-03-19 08:04:00,60.1,57.2,30.23,South,181,0.0,1.0,90,0.00,,,0.00,Wunderground v.1.15,2013-03-18 21:04:00,
2013-03-19 08:09:00,60.6,57.0,30.23,SW,224,1.0,2.0,88,0.00,,,0.00,Wunderground v.1.15,2013-03-18 21:09:00,
2013-03-19 08:14:00,61.0,57.1,30.23,SW,214,0.0,2.0,87,0.00,,,0.00,Wunderground v.1.15,2013-03-18 21:14:00,
2013-03-19 08:19:00,61.6,57.4,30.23,South,184,0.0,2.0,86,0.00,,,0.00,Wunderground v.1.15,2013-03-18 21:19:00,
2013-03-19 08:24:00,62.4,58.5,30.23,South,179,0.0,2.0,87,0.00,,,0.00,Wunderground v.1.15,2013-03-18 21:24:00,
2013-03-19 08:29:00,63.5,58.6,30.23,South,181,0.0,2.0,84,0.00,,,0.00,Wunderground v.1.15,2013-03-18 21:29:00,
2013-03-19 08:34:00,64.4,59.1,30.23,WSW,255,0.0,2.0,83,0.00,,,0.00,Wunderground v.1.15,2013-03-18 21:34:00,
2013-03-19 08:39:00,65.4,59.1,30.23,WSW,242,0.0,2.0,80,0.00,,,0.00,Wunderground v.1.15,2013-03-18 21:39:00,
2013-03-19 08:44:00,66.3,59.6,30.23,South,190,2.0,2.0,79,0.00,,,0.00,Wunderground v.1.15,2013-03-18 21:44:00,
2013-03-19 08:49:00,66.4,59.3,30.23,SSE,164,0.0,2.0,78,0.00,,,0.00,Wunderground v.1.15,2013-03-18 21:49:00,
2013-03-19 08:54:00,67.3,60.2,30.23,WNW,292,0.0,2.0,78,0.00,,,0.00,Wunderground v.1.15,2013-03-18 21:54:00,
2013-03-19 08:59:00,67.5,60.0,30.23,West,276,0.0,2.0,77,0.00,,,0.00,Wunderground v.1.15,2013-03-18 21:59:00,
2013-03-19 09:04:00,67.7,59.5,30.23,SSE,160,1.0,4.0,75,0.00,,,0.00,Wunderground v.1.15,2013-03-18 22:04:00,
2013-03-19 09:09:00,67.6,59.8,30.24,SSW,193,0.0,4.0,76,0.00,,,0.00,Wunderground v.1.15,2013-03-18 22:09:00,
2013-03-19 09:14:00,68.2,59.6,30.23,SE,126,2.0,2.0,74,0.00,,,0.00,Wunderground v.1.15,2013-03-18 22:14:00,
2013-03-19 09:19:00,68.8,60.2,30.23,South,183,0.0,2.0,74,0.00,,,0.00,Wunderground v.1.15,2013-03-18 22:19:00,
2013-03-19 09:24:00,69.5,60.8,30.24,WSW,241,1.0,2.0,74,0.00,,,0.00,Wunderground v.1.15,2013-03-18 22:24:00,
2013-03-19 09:29:00,69.9,60.5,30.23,SSW,195,0.0,3.0,72,0.00,,,0.00,Wunderground v.1.15,2013-03-18 22:29:00,
2013-03-19 09:34:00,70.5,61.8,30.24,SSW,204,0.0,2.0,74,0.00,,,0.00,Wunderground v.1.15,2013-03-18 22:34:00,
2013-03-19 09:39:00,71.0,60.3,30.24,SSE,153,2.0,3.0,69,0.00,,,0.00,Wunderground v.1.15,2013-03-18 22:39:00,
2013-03-19 09:44:00,70.8,60.1,30.24,SE,129,1.0,4.0,69,0.00,,,0.00,Wunderground v.1.15,2013-03-18 22:44:00,
2013-03-19 09:49:00,71.0,59.5,30.24,SSE,162,1.0,4.0,67,0.00,,,0.00,Wunderground v.1.15,2013-03-18 22:49:00,
2013-03-19 09:54:00,71.4,60.3,30.24,SW,236,1.0,2.0,68,0.00,,,0.00,Wunderground v.1.15,2013-03-18 22:54:00,
2013-03-19 09:59:00,71.9,59.9,30.24,SE,139,3.0,5.0,66,0.00,,,0.00,Wunderground v.1.15,2013-03-18 22:59:00,
2013-03-19 10:05:00,71.7,59.3,30.24,SE,126,1.0,3.0,65,0.00,,,0.00,Wunderground v.1.15,2013-03-18 23:05:00,
2013-03-19 10:10:00,71.9,59.5,30.24,South,180,1.0,5.0,65,0.00,,,-99.99,WeatherLink 5.9.3,2013-03-18 23:10:00,
2013-03-19 10:15:00,72.0,58.7,30.24,SSW,195,2.0,3.0,63,0.00,,,0.00,Wunderground v.1.15,2013-03-18 23:15:00,
2013-03-19 10:20:00,71.7,58.9,30.24,East,90,1.0,4.0,64,0.00,,,-99.99,WeatherLink 5.9.3,2013-03-18 23:20:00,
2013-03-19 10:25:00,72.3,59.0,30.24,ESE,103,0.0,3.0,63,0.00,,,0.00,Wunderground v.1.15,2013-03-18 23:25:00,
2013-03-19 10:31:00,72.9,59.1,30.24,SSW,202,1.0,4.0,62,0.00,,,-99.99,WeatherLink 5.9.3,2013-03-18 23:31:00,
2013-03-19 10:36:00,73.9,59.6,30.24,ESE,111,0.0,2.0,61,0.00,,,0.00,Wunderground v.1.15,2013-03-18 23:36:00,
2013-03-19 10:41:00,74.0,57.3,30.24,NE,39,5.0,5.0,56,0.00,,,0.00,Wunderground v.1.15,2013-03-18 23:41:00,
2013-03-19 10:47:00,73.5,57.3,30.24,ENE,62,1.0,6.0,57,0.00,,,0.00,Wunderground v.1.15,2013-03-18 23:47:00,
2013-03-19 10:52:00,72.7,57.1,30.24,East,82,1.0,2.0,58,0.00,,,0.00,Wunderground v.1.15,2013-03-18 23:52:00,
2013-03-19 10:57:00,72.8,56.2,30.24,NE,55,0.0,2.0,56,0.00,,,0.00,Wunderground v.1.15,2013-03-18 23:57:00,
2013-03-19 11:02:00,73.6,57.4,30.24,South,175,0.0,3.0,57,0.00,,,0.00,Wunderground v.1.15,2013-03-19 00:02:00,
2013-03-19 11:07:00,73.1,57.9,30.24,South,185,0.0,4.0,59,0.00,,,0.00,Wunderground v.1.15,2013-03-19 00:07:00,
2013-03-19 11:12:00,72.4,56.8,30.24,ENE,60,1.0,3.0,58,0.00,,,0.00,Wunderground v.1.15,2013-03-19 00:12:00,
2013-03-19 11:17:00,72.9,56.8,30.24,ENE,59,1.0,4.0,57,0.00,,,0.00,Wunderground v.1.15,2013-03-19 00:17:00,
2013-03-19 11:22:00,73.5,57.3,30.24,ENE,68,0.0,2.0,57,0.00,,,0.00,Wunderground v.1.15,2013-03-19 00:22:00,
2013-03-19 11:27:00,72.9,56.8,30.24,SSE,167,0.0,3.0,57,0.00,,,0.00,Wunderground v.1.15,2013-03-19 00:27:00,
2013-03-19 11:32:00,72.4,56.3,30.24,ENE,73,2.0,4.0,57,0.00,,,0.00,Wunderground v.1.15,2013-03-19 00:32:00,
2013-03-19 11:37:00,71.9,56.8,30.23,SE,136,0.0,4.0,59,0.00,,,0.00,Wunderground v.1.15,2013-03-19 00:37:00,
2013-03-19 11:42:00,71.8,56.2,30.23,SSW,192,0.0,1.0,58,0.00,,,0.00,Wunderground v.1.15,2013-03-19 00:42:00,
2013-03-19 11:48:00,71.6,56.5,30.23,ESE,122,0.0,2.0,59,0.00,,,0.00,Wunderground v.1.15,2013-03-19 00:48:00,
2013-03-19 11:53:00,71.8,57.2,30.23,NNE,20,1.0,4.0,60,0.00,,,0.00,Wunderground v.1.15,2013-03-19 00:53:00,
2013-03-19 11:58:00,72.7,57.1,30.23,NNE,15,1.0,6.0,58,0.00,,,0.00,Wunderground v.1.15,2013-03-19 00:58:00,
2013-03-19 12:03:00,73.6,57.9,30.23,ENE,69,3.0,7.0,58,0.00,,,0.00,Wunderground v.1.15,2013-03-19 01:03:00,
2013-03-19 12:08:00,73.9,56.7,30.23,ENE,62,3.0,7.0,55,0.00,,,0.00,Wunderground v.1.15,2013-03-19 01:08:00,
2013-03-19 12:13:00,74.6,57.9,30.23,NE,38,4.0,6.0,56,0.00,,,0.00,Wunderground v.1.15,2013-03-19 01:13:00,
2013-03-19 12:18:00,74.7,55.9,30.22,NE,53,1.0,6.0,52,0.00,,,0.00,Wunderground v.1.15,2013-03-19 01:18:00,
2013-03-19 12:23:00,74.8,57.0,30.22,ENE,75,3.0,4.0,54,0.00,,,0.00,Wunderground v.1.15,2013-03-19 01:23:00,
2013-03-19 12:28:00,74.9,57.1,30.22,SSE,153,2.0,4.0,54,0.00,,,0.00,Wunderground v.1.15,2013-03-19 01:28:00,
2013-03-19 12:33:00,74.6,56.9,30.22,SSW,203,1.0,2.0,54,0.00,,,0.00,Wunderground v.1.15,2013-03-19 01:33:00,
2013-03-19 12:38:00,74.6,57.4,30.21,SSW,207,2.0,3.0,55,0.00,,,0.00,Wunderground v.1.15,2013-03-19 01:38:00,
2013-03-19 12:43:00,75.4,59.1,30.21,SSW,203,0.0,2.0,57,0.00,,,0.00,Wunderground v.1.15,2013-03-19 01:43:00,
2013-03-19 12:48:00,76.4,57.5,30.21,ESE,108,3.0,3.0,52,0.00,,,0.00,Wunderground v.1.15,2013-03-19 01:48:00,
2013-03-19 12:53:00,76.0,57.6,30.21,ENE,59,2.0,5.0,53,0.00,,,0.00,Wunderground v.1.15,2013-03-19 01:53:00,
2013-03-19 12:58:00,75.9,57.5,30.21,East,90,1.0,5.0,53,0.00,,,0.00,Wunderground v.1.15,2013-03-19 01:58:00,
2013-03-19 13:03:00,75.8,58.0,30.21,North,8,0.0,4.0,54,0.00,,,0.00,Wunderground v.1.15,2013-03-19 02:03:00,
2013-03-19 13:08:00,76.2,58.9,30.21,North,11,2.0,4.0,55,0.00,,,0.00,Wunderground v.1.15,2013-03-19 02:08:00,
2013-03-19 13:13:00,76.6,58.2,30.20,ENE,58,4.0,6.0,53,0.00,,,0.00,Wunderground v.1.15,2013-03-19 02:13:00,
2013-03-19 13:18:00,76.6,58.2,30.20,ENE,63,2.0,7.0,53,0.00,,,0.00,Wunderground v.1.15,2013-03-19 02:18:00,
2013-03-19 13:23:00,76.2,57.3,30.20,East,98,3.0,5.0,52,0.00,,,0.00,Wunderground v.1.15,2013-03-19 02:23:00,
2013-03-19 13:28:00,75.9,57.0,30.20,South,190,2.0,5.0,52,0.00,,,0.00,Wunderground v.1.15,2013-03-19 02:28:00,
2013-03-19 13:33:00,75.3,57.5,30.20,ENE,70,3.0,4.0,54,0.00,,,0.00,Wunderground v.1.15,2013-03-19 02:33:00,
2013-03-19 13:39:00,75.1,58.3,30.20,ENE,62,2.0,4.0,56,0.00,,,0.00,Wunderground v.1.15,2013-03-19 02:39:00,
2013-03-19 13:44:00,75.1,56.8,30.19,East,92,2.0,7.0,53,0.00,,,0.00,Wunderground v.1.15,2013-03-19 02:44:00,
2013-03-19 13:49:00,75.7,60.4,30.19,East,98,3.0,7.0,59,0.00,,,0.00,Wunderground v.1.15,2013-03-19 02:49:00,
2013-03-19 13:54:00,75.8,58.5,30.19,East,94,2.0,7.0,55,0.00,,,0.00,Wunderground v.1.15,2013-03-19 02:54:00,
2013-03-19 13:59:00,76.4,59.5,30.19,ESE,104,1.0,7.0,56,0.00,,,0.00,Wunderground v.1.15,2013-03-19 02:59:00,
2013-03-19 14:04:00,76.2,58.9,30.19,ESE,104,4.0,6.0,55,0.00,,,0.00,Wunderground v.1.15,2013-03-19 03:04:00,
2013-03-19 14:09:00,74.9,58.1,30.19,SSE,160,3.0,7.0,56,0.00,,,0.00,Wunderground v.1.15,2013-03-19 03:09:00,
2013-03-19 14:14:00,73.9,58.2,30.19,SE,143,2.0,6.0,58,0.00,,,0.00,Wunderground v.1.15,2013-03-19 03:14:00,
2013-03-19 14:19:00,73.3,58.1,30.19,SSE,164,3.0,6.0,59,0.00,,,0.00,Wunderground v.1.15,2013-03-19 03:19:00,
2013-03-19 14:24:00,73.0,58.3,30.19,ESE,105,2.0,6.0,60,0.00,,,0.00,Wunderground v.1.15,2013-03-19 03:24:00,
2013-03-19 14:29:00,73.0,58.3,30.19,ESE,122,0.0,6.0,60,0.00,,,0.00,Wunderground v.1.15,2013-03-19 03:29:00,
2013-03-19 14:34:00,72.9,57.7,30.19,East,101,1.0,4.0,59,0.00,,,0.00,Wunderground v.1.15,2013-03-19 03:34:00,
2013-03-19 14:39:00,72.7,58.0,30.19,NE,56,3.0,4.0,60,0.00,,,0.00,Wunderground v.1.15,2013-03-19 03:39:00,
2013-03-19 14:44:00,72.9,57.7,30.19,SSE,155,2.0,3.0,59,0.00,,,0.00,Wunderground v.1.15,2013-03-19 03:44:00,
2013-03-19 14:49:00,73.5,58.3,30.18,NE,38,0.0,6.0,59,0.00,,,0.00,Wunderground v.1.15,2013-03-19 03:49:00,
2013-03-19 14:54:00,74.4,59.6,30.18,East,97,2.0,5.0,60,0.00,,,0.00,Wunderground v.1.15,2013-03-19 03:54:00,
2013-03-19 14:59:00,75.0,59.2,30.18,SSE,167,2.0,5.0,58,0.00,,,0.00,Wunderground v.1.15,2013-03-19 03:59:00,
2013-03-19 15:00:00,75.0,58.2,30.18,SSE,155,2.0,2.0,56,0.00,,,0.00,Wunderground v.1.15,2013-03-19 04:00:00,
2013-03-19 15:01:00,74.9,58.1,30.18,South,169,0.0,3.0,56,0.00,,,0.00,Wunderground v.1.15,2013-03-19 04:01:00,
2013-03-19 15:02:00,74.9,58.1,30.18,South,169,0.0,3.0,56,0.00,,,0.00,Wunderground v.1.15,2013-03-19 04:02:00,
2013-03-19 15:07:00,74.5,57.8,30.18,SSE,163,1.0,5.0,56,0.00,,,0.00,Wunderground v.1.15,2013-03-19 04:07:00,
2013-03-19 15:12:00,74.2,58.0,30.18,ENE,63,3.0,3.0,57,0.00,,,0.00,Wunderground v.1.15,2013-03-19 04:12:00,
2013-03-19 15:17:00,73.8,58.1,30.18,East,101,4.0,6.0,58,0.00,,,0.00,Wunderground v.1.15,2013-03-19 04:17:00,
2013-03-19 15:22:00,73.2,58.0,30.18,NE,54,3.0,4.0,59,0.00,,,0.00,Wunderground v.1.15,2013-03-19 04:22:00,
2013-03-19 15:27:00,72.9,58.2,30.18,East,82,0.0,4.0,60,0.00,,,0.00,Wunderground v.1.15,2013-03-19 04:27:00,
2013-03-19 15:33:00,72.8,57.6,30.18,SE,146,2.0,6.0,59,0.00,,,0.00,Wunderground v.1.15,2013-03-19 04:33:00,
2013-03-19 15:38:00,72.9,57.7,30.18,NE,52,1.0,6.0,59,0.00,,,0.00,Wunderground v.1.15,2013-03-19 04:38:00,
2013-03-19 15:43:00,73.2,58.5,30.18,ENE,64,2.0,3.0,60,0.00,,,0.00,Wunderground v.1.15,2013-03-19 04:43:00,
2013-03-19 15:48:00,73.3,58.6,30.18,NE,55,4.0,5.0,60,0.00,,,0.00,Wunderground v.1.15,2013-03-19 04:48:00,
2013-03-19 15:53:00,72.9,57.3,30.18,NE,41,1.0,5.0,58,0.00,,,0.00,Wunderground v.1.15,2013-03-19 04:53:00,
2013-03-19 15:58:00,72.6,57.0,30.18,South,181,1.0,5.0,58,0.00,,,0.00,Wunderground v.1.15,2013-03-19 04:58:00,
2013-03-19 16:03:00,72.3,58.1,30.18,SSE,147,3.0,5.0,61,0.00,,,0.00,Wunderground v.1.15,2013-03-19 05:03:00,
2013-03-19 16:08:00,71.9,57.7,30.18,SSE,147,1.0,7.0,61,0.00,,,0.00,Wunderground v.1.15,2013-03-19 05:08:00,
2013-03-19 16:13:00,71.6,57.4,30.18,South,179,1.0,4.0,61,0.00,,,0.00,Wunderground v.1.15,2013-03-19 05:13:00,
2013-03-19 16:18:00,71.6,57.4,30.18,ENE,69,2.0,4.0,61,0.00,,,0.00,Wunderground v.1.15,2013-03-19 05:18:00,
2013-03-19 16:23:00,71.6,57.0,30.18,ENE,57,1.0,5.0,60,0.00,,,0.00,Wunderground v.1.15,2013-03-19 05:23:00,
2013-03-19 16:29:00,72.8,57.2,30.18,South,169,3.0,6.0,58,0.00,,,0.00,Wunderground v.1.15,2013-03-19 05:29:00,
2013-03-19 16:34:00,73.6,56.9,30.18,East,101,3.0,3.0,56,0.00,,,0.00,Wunderground v.1.15,2013-03-19 05:34:00,
2013-03-19 16:40:00,73.1,57.4,30.18,SSE,157,2.0,6.0,58,0.00,,,-99.99,WeatherLink 5.9.3,2013-03-19 05:40:00,
2013-03-19 16:47:00,73.5,56.8,30.19,SW,236,4.0,4.0,56,0.00,,,0.00,Wunderground v.1.15,2013-03-19 05:47:00,
2013-03-19 16:53:00,73.7,57.0,30.19,East,98,3.0,4.0,56,0.00,,,0.00,Wunderground v.1.15,2013-03-19 05:53:00,
2013-03-19 16:59:00,73.6,57.4,30.19,ESE,103,1.0,4.0,57,0.00,,,0.00,Wunderground v.1.15,2013-03-19 05:59:00,
2013-03-19 17:04:00,73.6,56.9,30.19,ENE,76,1.0,4.0,56,0.00,,,0.00,Wunderground v.1.15,2013-03-19 06:04:00,
2013-03-19 17:09:00,73.9,57.2,30.19,SSE,165,4.0,8.0,56,0.00,,,0.00,Wunderground v.1.15,2013-03-19 06:09:00,
2013-03-19 17:14:00,73.5,56.8,30.19,NW,322,2.0,6.0,56,0.00,,,0.00,Wunderground v.1.15,2013-03-19 06:14:00,
2013-03-19 17:19:00,73.3,57.1,30.19,SSE,152,3.0,6.0,57,0.00,,,0.00,Wunderground v.1.15,2013-03-19 06:19:00,
2013-03-19 17:24:00,72.6,57.0,30.19,East,92,3.0,6.0,58,0.00,,,0.00,Wunderground v.1.15,2013-03-19 06:24:00,
2013-03-19 17:29:00,72.3,57.2,30.20,SSE,155,1.0,6.0,59,0.00,,,0.00,Wunderground v.1.15,2013-03-19 06:29:00,
2013-03-19 17:34:00,72.5,57.8,30.20,NE,46,0.0,6.0,60,0.00,,,0.00,Wunderground v.1.15,2013-03-19 06:34:00,
2013-03-19 17:39:00,72.8,57.6,30.20,SSE,160,1.0,6.0,59,0.00,,,0.00,Wunderground v.1.15,2013-03-19 06:39:00,
2013-03-19 17:44:00,72.6,57.9,30.20,ESE,111,1.0,8.0,60,0.00,,,0.00,Wunderground v.1.15,2013-03-19 06:44:00,
2013-03-19 17:49:00,72.5,58.3,30.20,SSW,193,2.0,8.0,61,0.00,,,0.00,Wunderground v.1.15,2013-03-19 06:49:00,
2013-03-19 17:54:00,72.6,58.4,30.20,SSE,160,3.0,6.0,61,0.00,,,0.00,Wunderground v.1.15,2013-03-19 06:54:00,
2013-03-19 17:59:00,72.2,58.0,30.20,ENE,60,1.0,6.0,61,0.00,,,0.00,Wunderground v.1.15,2013-03-19 06:59:00,
2013-03-19 18:04:00,71.9,57.7,30.20,NE,38,3.0,6.0,61,0.00,,,0.00,Wunderground v.1.15,2013-03-19 07:04:00,
2013-03-19 18:09:00,71.4,56.8,30.19,NE,45,2.0,6.0,60,0.00,,,0.00,Wunderground v.1.15,2013-03-19 07:09:00,
2013-03-19 18:14:00,71.1,57.0,30.20,SE,124,6.0,6.0,61,0.00,,,0.00,Wunderground v.1.15,2013-03-19 07:14:00,
2013-03-19 18:19:00,70.8,57.1,30.20,East,82,1.0,6.0,62,0.00,,,0.00,Wunderground v.1.15,2013-03-19 07:19:00,
2013-03-19 18:24:00,70.6,57.4,30.20,SE,131,2.0,3.0,63,0.00,,,0.00,Wunderground v.1.15,2013-03-19 07:24:00,
2013-03-19 18:29:00,70.4,57.6,30.20,ESE,103,2.0,3.0,64,0.00,,,0.00,Wunderground v.1.15,2013-03-19 07:29:00,
2013-03-19 18:34:00,69.9,57.6,30.21,South,176,3.0,3.0,65,0.00,,,0.00,Wunderground v.1.15,2013-03-19 07:34:00,
2013-03-19 18:39:00,69.6,57.7,30.21,East,87,1.0,4.0,66,0.00,,,0.00,Wunderground v.1.15,2013-03-19 07:39:00,
2013-03-19 18:44:00,69.3,57.9,30.21,NE,40,0.0,2.0,67,0.00,,,0.00,Wunderground v.1.15,2013-03-19 07:44:00,
2013-03-19 18:49:00,69.0,57.6,30.21,ENE,75,0.0,2.0,67,0.00,,,0.00,Wunderground v.1.15,2013-03-19 07:49:00,
2013-03-19 18:54:00,68.6,57.6,30.22,NE,52,0.0,3.0,68,0.00,,,0.00,Wunderground v.1.15,2013-03-19 07:54:00,
2013-03-19 18:59:00,68.3,57.7,30.22,ENE,78,1.0,3.0,69,0.00,,,0.00,Wunderground v.1.15,2013-03-19 07:59:00,
2013-03-19 19:04:00,68.0,57.4,30.22,East,99,0.0,3.0,69,0.00,,,0.00,Wunderground v.1.15,2013-03-19 08:04:00,
2013-03-19 19:09:00,67.7,57.6,30.22,NE,52,0.0,3.0,70,0.00,,,0.00,Wunderground v.1.15,2013-03-19 08:09:00,
2013-03-19 19:14:00,67.4,57.3,30.22,NE,45,0.0,1.0,70,0.00,,,0.00,Wunderground v.1.15,2013-03-19 08:14:00,
2013-03-19 19:19:00,67.0,57.3,30.23,NE,44,0.0,1.0,71,0.00,,,0.00,Wunderground v.1.15,2013-03-19 08:19:00,
2013-03-19 19:25:00,66.6,57.3,30.23,NE,48,0.0,1.0,72,0.00,,,0.00,Wunderground v.1.15,2013-03-19 08:25:00,
2013-03-19 19:30:00,66.2,57.3,30.23,NE,48,0.0,1.0,73,0.00,,,0.00,Wunderground v.1.15,2013-03-19 08:30:00,
2013-03-19 19:35:00,65.7,57.2,30.23,NE,48,0.0,0.0,74,0.00,,,0.00,Wunderground v.1.15,2013-03-19 08:35:00,
2013-03-19 19:40:00,65.2,57.1,30.23,NE,48,0.0,0.0,75,0.00,,,0.00,Wunderground v.1.15,2013-03-19 08:40:00,
2013-03-19 19:45:00,64.6,57.2,30.24,NE,49,0.0,0.0,77,0.00,,,0.00,Wunderground v.1.15,2013-03-19 08:45:00,
2013-03-19 19:50:00,64.2,56.8,30.24,SSE,158,0.0,1.0,77,0.00,,,0.00,Wunderground v.1.15,2013-03-19 08:50:00,
2013-03-19 19:55:00,64.3,57.3,30.24,SSE,157,0.0,0.0,78,0.00,,,0.00,Wunderground v.1.15,2013-03-19 08:55:00,
2013-03-19 20:00:00,64.1,57.1,30.24,SSE,158,0.0,0.0,78,0.00,,,0.00,Wunderground v.1.15,2013-03-19 09:00:00,
2013-03-19 20:05:00,64.0,57.0,30.25,SSE,158,0.0,0.0,78,0.00,,,0.00,Wunderground v.1.15,2013-03-19 09:05:00,
2013-03-19 20:10:00,63.7,57.1,30.25,SSE,157,0.0,0.0,79,0.00,,,0.00,Wunderground v.1.15,2013-03-19 09:10:00,
2013-03-19 20:15:00,63.4,57.1,30.25,SSE,157,0.0,0.0,80,0.00,,,0.00,Wunderground v.1.15,2013-03-19 09:15:00,
2013-03-19 20:20:00,63.0,57.1,30.25,SSE,157,0.0,0.0,81,0.00,,,0.00,Wunderground v.1.15,2013-03-19 09:20:00,
2013-03-19 20:25:00,62.6,57.0,30.25,SSE,158,0.0,0.0,82,0.00,,,0.00,Wunderground v.1.15,2013-03-19 09:25:00,
2013-03-19 20:30:00,62.5,56.9,30.25,North,-999,0.0,0.0,82,0.00,,,-99.99,WeatherLink 5.9.3,2013-03-19 09:30:00,
2013-03-19 20:35:00,62.2,57.0,30.26,SSE,157,0.0,0.0,83,0.00,,,0.00,Wunderground v.1.15,2013-03-19 09:35:00,
2013-03-19 20:40:00,62.4,56.8,30.25,North,-999,0.0,0.0,82,0.00,,,-99.99,WeatherLink 5.9.3,2013-03-19 09:40:00,
2013-03-19 20:45:00,61.7,56.8,30.26,SSE,158,0.0,0.0,84,0.00,,,0.00,Wunderground v.1.15,2013-03-19 09:45:00,
2013-03-19 20:51:00,61.5,56.9,30.26,SSE,161,0.0,0.0,85,0.00,,,0.00,Wunderground v.1.15,2013-03-19 09:51:00,
2013-03-19 20:56:00,61.3,56.8,30.26,SSE,161,0.0,0.0,85,0.00,,,0.00,Wunderground v.1.15,2013-03-19 09:56:00,
2013-03-19 21:01:00,61.5,56.9,30.26,North,-999,0.0,0.0,85,0.00,,,-99.99,WeatherLink 5.9.3,2013-03-19 10:01:00,
2013-03-19 21:06:00,61.0,56.8,30.27,SSE,161,0.0,0.0,86,0.00,,,0.00,Wunderground v.1.15,2013-03-19 10:06:00,
2013-03-19 21:11:00,61.2,57.0,30.26,North,-999,0.0,0.0,86,0.00,,,-99.99,WeatherLink 5.9.3,2013-03-19 10:11:00,
2013-03-19 21:16:00,60.5,56.3,30.27,SSE,166,0.0,0.0,86,0.00,,,0.00,Wunderground v.1.15,2013-03-19 10:16:00,
2013-03-19 21:21:00,60.2,56.3,30.27,SSE,166,0.0,0.0,87,0.00,,,0.00,Wunderground v.1.15,2013-03-19 10:21:00,
2013-03-19 21:26:00,59.8,55.9,30.27,SSE,166,0.0,0.0,87,0.00,,,0.00,Wunderground v.1.15,2013-03-19 10:26:00,
2013-03-19 21:31:00,59.4,55.5,30.27,SSE,166,0.0,0.0,87,0.00,,,0.00,Wunderground v.1.15,2013-03-19 10:31:00,
2013-03-19 21:36:00,59.2,55.6,30.27,SSE,166,0.0,0.0,88,0.00,,,0.00,Wunderground v.1.15,2013-03-19 10:36:00,
2013-03-19 21:41:00,59.4,55.5,30.27,North,-999,0.0,0.0,87,0.00,,,-99.99,WeatherLink 5.9.3,2013-03-19 10:41:00,
2013-03-19 21:46:00,59.0,56.1,30.28,SSE,166,0.0,0.0,90,0.00,,,0.00,Wunderground v.1.15,2013-03-19 10:46:00,
2013-03-19 21:51:00,58.7,55.8,30.28,SSE,166,0.0,0.0,90,0.00,,,0.00,Wunderground v.1.15,2013-03-19 10:51:00,
2013-03-19 21:56:00,58.5,55.6,30.28,SSE,166,0.0,0.0,90,0.00,,,0.00,Wunderground v.1.15,2013-03-19 10:56:00,
2013-03-19 22:01:00,59.1,55.9,30.27,North,-999,0.0,0.0,89,0.00,,,-99.99,WeatherLink 5.9.3,2013-03-19 11:01:00,
2013-03-19 22:07:00,58.4,55.8,30.28,SSE,166,0.0,0.0,91,0.00,,,0.00,Wunderground v.1.15,2013-03-19 11:07:00,
2013-03-19 22:12:00,58.4,55.8,30.28,SSE,166,0.0,0.0,91,0.00,,,0.00,Wunderground v.1.15,2013-03-19 11:12:00,
2013-03-19 22:17:00,58.2,55.6,30.28,SSE,165,0.0,0.0,91,0.00,,,0.00,Wunderground v.1.15,2013-03-19 11:17:00,
2013-03-19 22:22:00,58.2,55.9,30.28,SSE,166,0.0,0.0,92,0.00,,,0.00,Wunderground v.1.15,2013-03-19 11:22:00,
2013-03-19 22:27:00,58.3,56.0,30.29,SSE,166,0.0,0.0,92,0.00,,,0.00,Wunderground v.1.15,2013-03-19 11:27:00,
2013-03-19 22:32:00,58.4,56.1,30.28,SSE,166,0.0,0.0,92,0.00,,,0.00,Wunderground v.1.15,2013-03-19 11:32:00,
2013-03-19 22:37:00,58.3,56.0,30.28,SSE,166,0.0,0.0,92,0.00,,,0.00,Wunderground v.1.15,2013-03-19 11:37:00,
2013-03-19 22:42:00,58.2,55.9,30.28,SSE,166,0.0,0.0,92,0.00,,,0.00,Wunderground v.1.15,2013-03-19 11:42:00,
2013-03-19 22:47:00,58.1,55.8,30.28,SSE,165,0.0,0.0,92,0.00,,,0.00,Wunderground v.1.15,2013-03-19 11:47:00,
2013-03-19 22:52:00,57.9,55.6,30.28,SSE,166,0.0,0.0,92,0.00,,,0.00,Wunderground v.1.15,2013-03-19 11:52:00,
2013-03-19 22:57:00,57.9,55.6,30.28,SSE,166,0.0,0.0,92,0.00,,,0.00,Wunderground v.1.15,2013-03-19 11:57:00,
2013-03-19 23:02:00,57.9,55.6,30.28,SSE,165,0.0,0.0,92,0.00,,,0.00,Wunderground v.1.15,2013-03-19 12:02:00,
2013-03-19 23:07:00,57.8,55.5,30.28,SSE,166,0.0,0.0,92,0.00,,,0.00,Wunderground v.1.15,2013-03-19 12:07:00,
2013-03-19 23:12:00,57.5,55.2,30.28,SSE,166,0.0,0.0,92,0.00,,,0.00,Wunderground v.1.15,2013-03-19 12:12:00,
2013-03-19 23:17:00,57.3,55.0,30.28,SSE,166,0.0,0.0,92,0.00,,,0.00,Wunderground v.1.15,2013-03-19 12:17:00,
2013-03-19 23:22:00,57.4,55.4,30.28,SSE,166,0.0,0.0,93,0.00,,,0.00,Wunderground v.1.15,2013-03-19 12:22:00,
2013-03-19 23:27:00,57.4,55.4,30.28,SSE,166,0.0,0.0,93,0.00,,,0.00,Wunderground v.1.15,2013-03-19 12:27:00,
2013-03-19 23:32:00,57.3,55.3,30.28,SSE,166,0.0,0.0,93,0.00,,,0.00,Wunderground v.1.15,2013-03-19 12:32:00,
2013-03-19 23:38:00,57.1,55.1,30.28,SSE,166,0.0,0.0,93,0.00,,,0.00,Wunderground v.1.15,2013-03-19 12:38:00,
2013-03-19 23:43:00,57.0,55.0,30.28,SSE,165,0.0,0.0,93,0.00,,,0.00,Wunderground v.1.15,2013-03-19 12:43:00,
2013-03-19 23:48:00,56.9,54.9,30.28,SSE,166,0.0,0.0,93,0.00,,,0.00,Wunderground v.1.15,2013-03-19 12:48:00,
2013-03-19 23:53:00,57.0,55.3,30.27,SSE,166,0.0,0.0,94,0.00,,,0.00,Wunderground v.1.15,2013-03-19 12:53:00,
2013-03-19 23:58:00,56.9,54.9,30.28,SSE,165,0.0,0.0,93,0.00,,,0.00,Wunderground v.1.15,2013-03-19 12:58:00,